Simultaneous Nadir Overpasses (SNOs) Predictions

Prediction of SNOs between LANDSAT-8 and NOAA-19 Satellite Orbit:

Table of predicted SNOs for the next 14.0 days since TLE Epoch: 12/9/2017
Index Date (LANDSAT-8) Time (LANDSAT-8) Lat,Lon (LANDSAT-8) SZA (LANDSAT-8 ) Date (NOAA-19) Time (NOAA-19) Lat,Lon (NOAA-19) SZA (NOAA-19 ) Distance(km) Time Diff (sec)
1 12/09/2017 06:50:10 76.91, 88.67 99.99 12/09/2017 06:49:49 76.94, 88.64 100.02 3.65 21
2 12/09/2017 07:39:38 -76.88,-103.81 80.05 12/09/2017 07:40:43 -76.89,-103.85 80.02 1.40 65
3 12/11/2017 12:23:54 -76.94,-174.64 79.79 12/11/2017 12:23:26 -76.94,-174.68 79.80 1.16 28
4 12/11/2017 13:13:21 76.88, -7.22 100.15 12/11/2017 13:14:30 76.87, -7.14 100.15 2.69 69
5 12/13/2017 17:57:37 76.95, -78.07 100.36 12/13/2017 17:57:13 76.94, -78.06 100.35 0.55 24
6 12/13/2017 18:47:05 -76.92, 89.47 79.67 12/13/2017 18:48:08 -76.89, 89.41 79.69 3.07 63
7 12/15/2017 23:31:22 -76.93, 18.45 79.55 12/15/2017 23:30:51 -76.95, 18.55 79.53 3.28 31
8 12/16/2017 00:20:48 76.91,-173.98 100.43 12/16/2017 00:21:55 76.92,-174.07 100.45 2.43 67
9 12/18/2017 05:05:04 76.97, 115.16 100.56 12/18/2017 05:04:37 76.96, 115.15 100.55 1.33 27
10 12/18/2017 05:54:33 -76.90, -77.46 79.52 12/18/2017 05:55:33 -76.91, -77.39 79.49 2.21 60
11 12/20/2017 10:38:49 -76.96,-148.33 79.43 12/20/2017 10:38:16 -76.98,-148.28 79.41 2.53 33
12 12/20/2017 11:28:15 76.93, 19.23 100.55 12/20/2017 11:29:18 76.90, 19.28 100.54 3.53 63
13 12/22/2017 16:12:31 76.99, -51.65 100.60 12/22/2017 16:12:01 77.00, -51.72 100.60 2.15 30




NCC Satellite Simultaneous Nadir Overpasses (SNOs) Prediction Service
